Location: Sternwarte ZA, Rosenfeld-Brittheim
(48.2889°N, 8.6789°E)
Time: 19:45:22
(UTC+01:00)

ISS - Pass Details

Date: 16 December 2017
Orbit: 402 x 407 km, 51.6° (Epoch: 11 December)

Event Time Altitude Azimuth Distance (km) Brightness Sun altitude
Rises 17:01:03 0° 291° (WNW) 2,332 0.6 -5.0°
Reaches altitude 10° 17:03:10 10° 287° (WNW) 1,469 -0.3 -5.3°
Maximum altitude 17:06:22 53° 210° (SSW) 506 -2.9 -5.7°
Drops below altitude 10° 17:09:35 10° 132° (SE) 1,460 -1.2 -6.2°
Sets 17:11:40 0° 128° (SE) 2,316 -0.2 -6.5°
